Location: Unspecified
(0.0000°N, 0.0000°E)
Time: 22:42:06
(UTC+00:00)

CORIOLIS - Visible Passes

Search period start: 13 October 2019 00:00
Search period end: 23 October 2019 00:00
Orbit: 818 x 839 km, 98.7° (Epoch: 13 October)

Date Brightness Start Highest point End Pass type
(mag) Time Alt. Az. Time Alt. Az. Time Alt. Az.
13 Oct 5.0 18:24:17 10° S 18:29:30 55° WSW 18:34:43 10° NNW visible
14 Oct 4.2 18:05:55 10° SSE 18:11:17 89° ENE 18:16:37 10° NNW visible
15 Oct 7.3 05:08:30 10° ENE 05:12:07 18° ESE 05:15:43 10° SE visible
16 Oct 7.9 04:52:58 10° E 04:53:55 10° ESE 04:54:53 10° ESE visible
16 Oct 7.2 19:11:38 10° SW 19:14:48 16° WSW 19:17:58 10° WNW visible
17 Oct 6.4 18:52:12 10° SSW 18:56:36 26° WSW 19:00:59 10° NW visible
18 Oct 5.5 18:33:21 10° S 18:38:23 43° WSW 18:43:24 10° NNW visible
19 Oct 4.5 18:14:50 10° S 18:20:10 72° WSW 18:25:28 10° NNW visible
20 Oct 7.1 05:16:48 10° NE 05:21:00 23° ESE 05:25:13 10° SSE visible
21 Oct 7.6 05:00:06 10° ENE 05:02:48 14° ESE 05:05:31 10° SE visible
21 Oct 7.4 19:21:37 10° SW 19:23:40 12° WSW 19:25:43 10° W visible
22 Oct 6.8 19:01:35 10° SSW 19:05:28 21° WSW 19:09:21 10° NW visible
